Darstellungsparameter: Aktuell verwendete Einstellungen:
Skalierung der Graphiken ... ?
xyx+y,   Skalierungsfaktor:      Skalierung: Modus: x, Faktor: 1
Darstellungszeitraum ... ?
Vom - - bis: - -   Zeitraum: 22.04.2020 - 24.04.2020
Min/Max/Avg-Anzeige ... ?
Zeige MMA aktuell
Zeige MMA Monat
Zeige MMA alles
Zeige --A aktuell
Zeige --A Monat
Zeige --A alles
Keine MMA-Anzeige
MMA:
Keine MMA-Graphiken
MMA-Basis: 22.04.2020 - 24.04.2020
Quicknavigation für Darstellung... ?
Tage:      1T, 2T, 3T, 5T -1T -2T -3T -5T +1T +2T +3T +5T
Wochen: 1W, 2W, 3W -1W -2W -3W +1W +2W +3W
Monate: 1M, 3M, 6M -1M -3M -6M +1M +3M +6M
Jahre:    1J, 3J, 5J, 10J -1J -3J -5J -10J +1J +3J +5J +10J
Nutze für die Darstellung ... ?
Originaldaten oder Mittelwerte auf ...
Stundenbasis Tagesbasis Wochenbasis
Monatsbasis Jahresbasis      Datenbasis: Original-Daten
Darstellen als:
Statistik (Auto) Statistik J:M      Darstellung:
Zur Graphik,    zurück zur Übersicht aller Sensoren.
 
Tabellarische Datenbersicht: ?
 
Sensor: Nr:Datum:Temp:Feuchte:
Aussen-T/F 1 22-04-2020 00:02:18 11.1 C 20 %
2 22-04-2020 00:12:18 10.6 C 20 %
3 22-04-2020 00:22:17 11.1 C 20 %
4 22-04-2020 00:32:18 11.4 C 20 %
5 22-04-2020 00:42:18 10.9 C 20 %
6 22-04-2020 00:52:17 11 C 20 %
7 22-04-2020 01:02:17 10.8 C 20 %
8 22-04-2020 01:12:17 10 C 21 %
9 22-04-2020 01:22:17 9.9 C 25 %
10 22-04-2020 01:32:18 9.7 C 25 %
11 22-04-2020 01:42:18 10.2 C 21 %
12 22-04-2020 01:52:17 9.9 C 23 %
13 22-04-2020 02:02:17 9.9 C 23 %
14 22-04-2020 02:12:17 9.8 C 25 %
15 22-04-2020 02:22:17 9.5 C 25 %
16 22-04-2020 02:32:17 9.3 C 25 %
17 22-04-2020 02:42:17 9.7 C 25 %
18 22-04-2020 02:52:17 9.3 C 25 %
19 22-04-2020 03:02:17 9.5 C 25 %
20 22-04-2020 03:12:17 9 C 25 %
21 22-04-2020 03:22:18 8.8 C 26 %
22 22-04-2020 03:32:18 8.5 C 27 %
23 22-04-2020 03:42:18 8.4 C 27 %
24 22-04-2020 03:52:17 8.3 C 27 %
25 22-04-2020 04:02:18 8.4 C 27 %
Sensor: Nr:Datum:Temp:Feuchte:
Aussen-T/F 26 22-04-2020 04:12:18 8.3 C 27 %
27 22-04-2020 04:22:17 8 C 27 %
28 22-04-2020 04:32:18 7.9 C 27 %
29 22-04-2020 04:42:18 7.9 C 27 %
30 22-04-2020 04:52:17 7.4 C 28 %
31 22-04-2020 05:02:18 7.5 C 28 %
32 22-04-2020 05:12:18 7.3 C 28 %
33 22-04-2020 05:22:17 7.1 C 29 %
34 22-04-2020 05:32:17 7.1 C 29 %
35 22-04-2020 05:42:18 6.9 C 30 %
36 22-04-2020 05:52:17 6.7 C 30 %
37 22-04-2020 06:02:18 6.7 C 30 %
38 22-04-2020 06:12:18 6.1 C 31 %
39 22-04-2020 06:22:17 5.8 C 32 %
40 22-04-2020 06:32:17 5.6 C 33 %
41 22-04-2020 06:42:17 5.3 C 35 %
42 22-04-2020 06:52:17 5.6 C 35 %
43 22-04-2020 07:02:17 5.6 C 35 %
44 22-04-2020 07:12:17 5.4 C 35 %
45 22-04-2020 07:22:18 5.9 C 35 %
46 22-04-2020 07:32:17 5.5 C 35 %
47 22-04-2020 07:42:17 5.7 C 35 %
48 22-04-2020 07:52:17 5.9 C 35 %
49 22-04-2020 08:02:17 6.5 C 34 %
50 22-04-2020 08:12:17 6.6 C 34 %
Sensor: Nr:Datum:Temp:Feuchte:
Aussen-T/F 51 22-04-2020 08:22:17 7 C 33 %
52 22-04-2020 08:32:17 7.5 C 32 %
53 22-04-2020 08:42:17 8 C 31 %
54 22-04-2020 08:52:18 8.9 C 30 %
55 22-04-2020 09:02:18 9.1 C 30 %
56 22-04-2020 09:12:18 9.1 C 30 %
57 22-04-2020 09:22:17 10.1 C 26 %
58 22-04-2020 09:32:17 10.7 C 26 %
59 22-04-2020 09:42:17 10.7 C 26 %
60 22-04-2020 09:52:17 11.3 C 24 %
61 22-04-2020 10:02:17 11.5 C 24 %
62 22-04-2020 10:12:17 12.5 C 20 %
63 22-04-2020 10:22:17 13 C 20 %
64 22-04-2020 10:32:17 13.7 C 20 %
65 22-04-2020 10:42:17 14.2 C 20 %
66 22-04-2020 10:52:17 14.8 C 20 %
67 22-04-2020 11:02:17 15.4 C 20 %
68 22-04-2020 11:12:17 15.7 C 20 %
69 22-04-2020 11:22:17 16.2 C 20 %
70 22-04-2020 11:32:17 16.4 C 20 %
71 22-04-2020 11:42:17 17.1 C 20 %
72 22-04-2020 11:52:18 17.1 C 20 %
73 22-04-2020 12:02:18 17.9 C 20 %
74 22-04-2020 12:12:18 17.6 C 20 %
75 22-04-2020 12:22:17 17.7 C 20 %
Sensor: Nr:Datum:Temp:Feuchte:
Aussen-T/F 76 22-04-2020 12:32:17 17.7 C 20 %
77 22-04-2020 12:42:17 17.7 C 20 %
78 22-04-2020 12:52:18 18 C 20 %
79 22-04-2020 13:02:17 18.6 C 20 %
80 22-04-2020 13:12:17 19.3 C 20 %
81 22-04-2020 13:22:17 19 C 20 %
82 22-04-2020 13:32:17 18.9 C 20 %
83 22-04-2020 13:42:17 19.1 C 20 %
84 22-04-2020 13:52:17 19.4 C 20 %
85 22-04-2020 14:02:17 19.8 C 20 %
86 22-04-2020 14:12:17 20.3 C 20 %
87 22-04-2020 14:22:17 21.2 C 20 %
88 22-04-2020 14:32:17 25.4 C 20 %
89 22-04-2020 14:42:17 27.1 C 20 %
90 22-04-2020 14:52:17 25.8 C 20 %
91 22-04-2020 15:02:17 24.9 C 20 %
92 22-04-2020 15:12:18 26.4 C 20 %
93 22-04-2020 15:22:17 27.6 C 20 %
94 22-04-2020 15:32:17 27 C 20 %
95 22-04-2020 15:42:17 25.4 C 20 %
96 22-04-2020 15:52:17 25.7 C 20 %
97 22-04-2020 16:02:17 25.3 C 20 %
98 22-04-2020 16:12:17 27.2 C 20 %
99 22-04-2020 16:22:17 26.8 C 20 %
100 22-04-2020 16:32:18 27.7 C 20 %
Sensor: Nr:Datum:Temp:Feuchte:
Aussen-T/F 101 22-04-2020 16:42:18 25.2 C 20 %
102 22-04-2020 16:52:17 26.3 C 20 %
103 22-04-2020 17:02:17 25.2 C 20 %
104 22-04-2020 17:12:17 24.6 C 20 %
105 22-04-2020 17:22:17 25.1 C 20 %
106 22-04-2020 17:32:17 25.5 C 20 %
107 22-04-2020 17:42:17 25.6 C 20 %
108 22-04-2020 17:52:17 25.2 C 20 %
109 22-04-2020 18:02:17 23.1 C 20 %
110 22-04-2020 18:12:17 22 C 20 %
111 22-04-2020 18:22:17 22.1 C 20 %
112 22-04-2020 18:32:17 21.9 C 20 %
113 22-04-2020 18:42:17 21.9 C 20 %
114 22-04-2020 18:52:17 21.6 C 20 %
115 22-04-2020 19:02:17 21.1 C 20 %
116 22-04-2020 19:12:17 21.2 C 20 %
117 22-04-2020 19:22:17 20.8 C 20 %
118 22-04-2020 19:32:18 20.4 C 20 %
119 22-04-2020 19:42:18 20.3 C 20 %
120 22-04-2020 19:52:17 20 C 20 %
121 22-04-2020 20:02:18 19.4 C 20 %
122 22-04-2020 20:12:18 18.4 C 20 %
123 22-04-2020 20:22:17 17 C 20 %
124 22-04-2020 20:32:17 16.3 C 20 %
125 22-04-2020 20:42:17 16.2 C 20 %
Sensor: Nr:Datum:Temp:Feuchte:
Aussen-T/F 126 22-04-2020 20:52:17 15.9 C 20 %
127 22-04-2020 21:02:17 15.7 C 20 %
128 22-04-2020 21:12:17 15 C 20 %
129 22-04-2020 21:22:17 14.6 C 20 %
130 22-04-2020 21:32:17 14.4 C 20 %
131 22-04-2020 21:42:17 14.4 C 20 %
132 22-04-2020 21:52:17 14.1 C 20 %
133 22-04-2020 22:02:17 13.7 C 20 %
134 22-04-2020 22:12:17 13.8 C 20 %
135 22-04-2020 22:22:17 14.2 C 20 %
136 22-04-2020 22:32:17 13.6 C 20 %
137 22-04-2020 22:42:17 13.5 C 20 %
138 22-04-2020 22:52:18 13.5 C 20 %
139 22-04-2020 23:02:17 13.7 C 20 %
140 22-04-2020 23:12:17 13.5 C 20 %
141 22-04-2020 23:22:17 13.2 C 20 %
142 22-04-2020 23:32:17 12.9 C 20 %
143 22-04-2020 23:42:17 13.2 C 20 %
144 22-04-2020 23:52:18 12.8 C 20 %
145 23-04-2020 00:02:17 12.6 C 20 %
146 23-04-2020 00:12:17 12.4 C 20 %
147 23-04-2020 00:22:17 12.4 C 20 %
148 23-04-2020 00:32:17 12.2 C 20 %
149 23-04-2020 00:42:17 12.2 C 20 %
150 23-04-2020 00:52:17 12.3 C 20 %
Sensor: Nr:Datum:Temp:Feuchte:
Aussen-T/F 151 23-04-2020 01:02:17 12.1 C 20 %
152 23-04-2020 01:12:17 11.9 C 20 %
153 23-04-2020 01:22:18 11 C 20 %
154 23-04-2020 01:32:17 12 C 20 %
155 23-04-2020 01:42:17 10.9 C 20 %
156 23-04-2020 01:52:17 10.5 C 22 %
157 23-04-2020 02:02:17 9.7 C 25 %
158 23-04-2020 02:12:17 9.7 C 26 %
159 23-04-2020 02:22:18 9.7 C 25 %
160 23-04-2020 02:32:17 9.8 C 26 %
161 23-04-2020 02:42:17 9.6 C 25 %
162 23-04-2020 02:52:17 9.3 C 26 %
163 23-04-2020 03:02:18 9.2 C 26 %
164 23-04-2020 03:12:18 9.2 C 26 %
165 23-04-2020 03:22:17 9.4 C 26 %
166 23-04-2020 03:32:17 9.4 C 26 %
167 23-04-2020 03:42:17 9.3 C 26 %
168 23-04-2020 03:52:17 9.1 C 26 %
169 23-04-2020 04:02:17 8.6 C 27 %
170 23-04-2020 04:12:17 8.1 C 29 %
171 23-04-2020 04:22:17 7.5 C 30 %
172 23-04-2020 04:32:17 7.2 C 32 %
173 23-04-2020 04:42:17 7.2 C 32 %
174 23-04-2020 04:52:17 6.9 C 33 %
175 23-04-2020 05:02:17 6.4 C 34 %
Sensor: Nr:Datum:Temp:Feuchte:
Aussen-T/F 176 23-04-2020 05:12:17 6.2 C 34 %
177 23-04-2020 05:22:17 5.9 C 35 %
178 23-04-2020 05:32:17 6 C 35 %
179 23-04-2020 05:42:17 6 C 35 %
180 23-04-2020 05:52:17 5.8 C 36 %
181 23-04-2020 06:02:17 5.8 C 36 %
182 23-04-2020 06:12:18 5.4 C 36 %
183 23-04-2020 06:22:17 5.4 C 36 %
184 23-04-2020 06:32:18 5.3 C 36 %
185 23-04-2020 06:42:18 5.3 C 36 %
186 23-04-2020 06:52:17 5.3 C 36 %
187 23-04-2020 07:02:17 5.3 C 37 %
188 23-04-2020 07:12:17 5.3 C 37 %
189 23-04-2020 07:22:17 5.2 C 37 %
190 23-04-2020 07:32:17 5.2 C 39 %
191 23-04-2020 07:42:17 5.2 C 39 %
192 23-04-2020 07:52:17 5.3 C 39 %
193 23-04-2020 08:02:17 5.4 C 39 %
194 23-04-2020 08:12:18 5.5 C 39 %
195 23-04-2020 08:22:18 5.9 C 39 %
196 23-04-2020 08:32:18 6.2 C 38 %
197 23-04-2020 08:42:18 6.5 C 38 %
198 23-04-2020 08:52:17 6.9 C 38 %
199 23-04-2020 09:02:17 7.7 C 36 %
200 23-04-2020 09:12:17 8.1 C 36 %
Sensor: Nr:Datum:Temp:Feuchte:
Aussen-T/F 201 23-04-2020 09:22:17 8.6 C 35 %
202 23-04-2020 09:32:17 9.2 C 35 %
203 23-04-2020 09:42:17 9.7 C 34 %
204 23-04-2020 09:52:17 9.9 C 34 %
205 23-04-2020 10:02:18 10.5 C 33 %
206 23-04-2020 10:12:18 11 C 32 %
207 23-04-2020 10:22:17 11.8 C 30 %
208 23-04-2020 10:32:17 12.7 C 28 %
209 23-04-2020 10:42:17 13.2 C 27 %
210 23-04-2020 10:52:17 14.8 C 22 %
211 23-04-2020 11:02:18 16 C 20 %
212 23-04-2020 11:12:18 16.3 C 20 %
213 23-04-2020 11:22:17 17.2 C 20 %
214 23-04-2020 11:32:17 17.4 C 20 %
215 23-04-2020 11:42:17 17.7 C 20 %
216 23-04-2020 11:52:18 17.9 C 20 %
217 23-04-2020 12:02:17 18.9 C 20 %
218 23-04-2020 12:12:17 18.2 C 20 %
219 23-04-2020 12:22:17 18 C 20 %
220 23-04-2020 12:32:18 18.5 C 20 %
221 23-04-2020 12:42:18 18.3 C 20 %
222 23-04-2020 12:52:17 18.4 C 20 %
223 23-04-2020 13:02:17 19.2 C 20 %
224 23-04-2020 13:12:17 19.5 C 20 %
225 23-04-2020 13:22:17 19.1 C 20 %
Sensor: Nr:Datum:Temp:Feuchte:
Aussen-T/F 226 23-04-2020 13:32:17 19.2 C 20 %
227 23-04-2020 13:42:17 19.7 C 20 %
228 23-04-2020 13:52:17 20.1 C 20 %
229 23-04-2020 14:02:17 20.4 C 20 %
230 23-04-2020 14:12:17 20.7 C 20 %
231 23-04-2020 14:22:17 21.6 C 20 %
232 23-04-2020 14:32:17 27.4 C 20 %
233 23-04-2020 14:42:17 29.1 C 20 %
234 23-04-2020 14:52:17 29 C 20 %
235 23-04-2020 15:02:17 29.3 C 20 %
236 23-04-2020 15:12:17 29.5 C 20 %
237 23-04-2020 15:22:18 28.8 C 20 %
238 23-04-2020 15:32:17 30.3 C 20 %
239 23-04-2020 15:42:17 31.4 C 20 %
240 23-04-2020 15:52:17 28.9 C 20 %
241 23-04-2020 16:02:18 27.7 C 20 %
242 23-04-2020 16:12:18 28.1 C 20 %
243 23-04-2020 16:22:17 28.4 C 20 %
244 23-04-2020 16:32:18 28.3 C 20 %
245 23-04-2020 16:42:18 29 C 20 %
246 23-04-2020 16:52:17 29.2 C 20 %
247 23-04-2020 17:02:17 31.6 C 20 %
248 23-04-2020 17:12:18 28.2 C 20 %
249 23-04-2020 17:22:17 28.6 C 20 %
250 23-04-2020 17:32:18 28.1 C 20 %
Sensor: Nr:Datum:Temp:Feuchte:
Aussen-T/F 251 23-04-2020 17:42:18 28 C 20 %
252 23-04-2020 17:52:18 30.1 C 20 %
253 23-04-2020 18:02:17 27.1 C 20 %
254 23-04-2020 18:12:17 24.5 C 20 %
255 23-04-2020 18:22:17 23.9 C 20 %
256 23-04-2020 18:32:17 23.6 C 20 %
257 23-04-2020 18:42:17 23.7 C 20 %
258 23-04-2020 18:52:17 23.2 C 20 %
259 23-04-2020 19:02:17 22.5 C 20 %
260 23-04-2020 19:12:17 22.4 C 20 %
261 23-04-2020 19:22:17 22 C 20 %
262 23-04-2020 19:32:18 21.2 C 20 %
263 23-04-2020 19:42:18 20 C 20 %
264 23-04-2020 19:52:17 18.6 C 20 %
265 23-04-2020 20:02:18 18.6 C 20 %
266 23-04-2020 20:12:18 17.9 C 20 %
267 23-04-2020 20:22:17 17.2 C 20 %
268 23-04-2020 20:32:18 16.5 C 20 %
269 23-04-2020 20:42:18 15.5 C 20 %
270 23-04-2020 20:52:18 14.3 C 20 %
271 23-04-2020 21:02:18 14 C 20 %
272 23-04-2020 21:12:18 14.1 C 20 %
273 23-04-2020 21:22:17 13.5 C 20 %
274 23-04-2020 21:32:17 13.1 C 20 %
275 23-04-2020 21:42:17 12.9 C 20 %
Sensor: Nr:Datum:Temp:Feuchte:
Aussen-T/F 276 23-04-2020 21:52:17 12.5 C 20 %
277 23-04-2020 22:02:17 12 C 23 %
278 23-04-2020 22:12:17 11.6 C 25 %
279 23-04-2020 22:22:17 11.5 C 25 %
280 23-04-2020 22:32:18 11 C 26 %
281 23-04-2020 22:42:18 11.1 C 26 %
282 23-04-2020 22:52:18 10.8 C 26 %
283 23-04-2020 23:02:18 10.4 C 27 %
284 23-04-2020 23:12:18 10.3 C 27 %
285 23-04-2020 23:22:18 9.6 C 29 %
286 23-04-2020 23:32:17 9.6 C 29 %
287 23-04-2020 23:42:17 9.6 C 29 %
288 23-04-2020 23:52:17 9.2 C 30 %
289 24-04-2020 00:02:18 9.2 C 30 %
290 24-04-2020 00:12:18 9.3 C 30 %
291 24-04-2020 00:22:17 9.2 C 30 %
292 24-04-2020 00:32:18 8.6 C 31 %
293 24-04-2020 00:42:18 8.4 C 31 %
294 24-04-2020 00:52:17 8.3 C 32 %
295 24-04-2020 01:02:18 8.1 C 32 %
296 24-04-2020 01:12:18 8.3 C 33 %
297 24-04-2020 01:22:17 8.1 C 32 %
298 24-04-2020 01:32:18 8.1 C 33 %
299 24-04-2020 01:42:18 8.2 C 33 %
300 24-04-2020 01:52:17 7.8 C 33 %
Sensor: Nr:Datum:Temp:Feuchte:
Aussen-T/F 301 24-04-2020 02:02:17 7.5 C 34 %
302 24-04-2020 02:12:17 7.1 C 34 %
303 24-04-2020 02:22:17 7 C 35 %
304 24-04-2020 02:32:18 7.2 C 35 %
305 24-04-2020 02:42:18 6.8 C 36 %
306 24-04-2020 02:52:18 7 C 35 %
307 24-04-2020 03:02:17 7 C 35 %
308 24-04-2020 03:12:18 6.8 C 36 %
309 24-04-2020 03:22:17 6.2 C 36 %
310 24-04-2020 03:32:17 6.4 C 37 %
311 24-04-2020 03:42:17 6.3 C 37 %
312 24-04-2020 03:52:17 6.2 C 37 %
313 24-04-2020 04:02:17 6.2 C 37 %
314 24-04-2020 04:12:17 6.1 C 37 %
315 24-04-2020 04:22:17 6 C 37 %
316 24-04-2020 04:32:17 5.9 C 38 %
317 24-04-2020 04:42:17 6.2 C 38 %
318 24-04-2020 04:52:17 6.3 C 38 %
319 24-04-2020 05:02:17 6.2 C 38 %
320 24-04-2020 05:12:17 6 C 38 %
321 24-04-2020 05:22:17 5.9 C 39 %
322 24-04-2020 05:32:18 6.3 C 38 %
323 24-04-2020 05:42:18 6.2 C 38 %
324 24-04-2020 05:52:17 6.1 C 38 %
325 24-04-2020 06:02:17 6.1 C 38 %
Sensor: Nr:Datum:Temp:Feuchte:
Aussen-T/F 326 24-04-2020 06:12:17 5.9 C 39 %
327 24-04-2020 06:22:18 6 C 39 %
328 24-04-2020 06:32:17 6 C 38 %
329 24-04-2020 06:42:17 6 C 39 %
330 24-04-2020 06:52:17 6.2 C 39 %
331 24-04-2020 07:02:17 6.3 C 38 %
332 24-04-2020 07:12:17 6.3 C 39 %
333 24-04-2020 07:22:17 6.3 C 39 %
334 24-04-2020 07:32:18 6.3 C 39 %
335 24-04-2020 07:42:18 6.5 C 39 %
336 24-04-2020 07:52:17 6.7 C 39 %
337 24-04-2020 08:02:18 6.8 C 39 %
338 24-04-2020 08:12:18 7.3 C 38 %
339 24-04-2020 08:22:17 8.2 C 36 %
340 24-04-2020 08:32:17 9 C 35 %
341 24-04-2020 08:42:17 9.6 C 35 %
342 24-04-2020 08:52:17 9.9 C 34 %
343 24-04-2020 09:02:17 10.4 C 33 %
344 24-04-2020 09:12:18 11 C 32 %
345 24-04-2020 09:22:17 11.5 C 31 %
346 24-04-2020 09:32:18 11.9 C 31 %
347 24-04-2020 09:42:18 12.5 C 30 %
348 24-04-2020 09:52:17 12.4 C 30 %
349 24-04-2020 10:02:17 12.8 C 30 %
350 24-04-2020 10:12:17 13.1 C 29 %
Sensor: Nr:Datum:Temp:Feuchte:
Aussen-T/F 351 24-04-2020 10:22:17 14 C 28 %
352 24-04-2020 10:32:17 14.2 C 28 %
353 24-04-2020 10:42:17 14.6 C 27 %
354 24-04-2020 10:52:17 15 C 26 %
355 24-04-2020 11:02:17 15.6 C 26 %
356 24-04-2020 11:12:18 15.6 C 26 %
357 24-04-2020 11:22:17 16.5 C 25 %
358 24-04-2020 11:32:18 16.6 C 24 %
359 24-04-2020 11:42:18 17 C 24 %
360 24-04-2020 11:52:17 17 C 23 %
361 24-04-2020 12:02:17 17.9 C 23 %
362 24-04-2020 12:12:17 18.1 C 21 %
363 24-04-2020 12:22:17 18.2 C 21 %
364 24-04-2020 12:32:18 18.4 C 21 %
365 24-04-2020 12:42:18 18.9 C 20 %
366 24-04-2020 12:52:18 19.3 C 20 %
367 24-04-2020 13:02:17 19.6 C 20 %
368 24-04-2020 13:12:17 20.2 C 20 %
369 24-04-2020 13:22:17 20.5 C 20 %
370 24-04-2020 13:32:18 20.7 C 20 %
371 24-04-2020 13:42:18 21 C 20 %
372 24-04-2020 13:52:17 21.3 C 20 %
373 24-04-2020 14:02:17 21.8 C 20 %
374 24-04-2020 14:12:17 22.2 C 20 %
375 24-04-2020 14:22:17 23.5 C 20 %
Sensor: Nr:Datum:Temp:Feuchte:
Aussen-T/F 376 24-04-2020 14:32:17 26.8 C 20 %
377 24-04-2020 14:42:17 28.5 C 20 %
378 24-04-2020 14:52:17 27.1 C 20 %
379 24-04-2020 15:02:18 28 C 20 %
380 24-04-2020 15:12:18 31 C 20 %
381 24-04-2020 15:22:17 27.6 C 20 %
382 24-04-2020 15:32:17 28.1 C 20 %
383 24-04-2020 15:42:18 27.5 C 20 %
384 24-04-2020 15:52:17 28.8 C 20 %
385 24-04-2020 16:02:18 28.7 C 20 %
386 24-04-2020 16:12:18 28.7 C 20 %
387 24-04-2020 16:22:18 27.2 C 20 %
388 24-04-2020 16:32:18 26.8 C 20 %
389 24-04-2020 16:42:18 28 C 20 %
390 24-04-2020 16:52:17 26.3 C 20 %
391 24-04-2020 17:02:17 26 C 20 %
392 24-04-2020 17:12:17 26.7 C 20 %
393 24-04-2020 17:22:18 26.4 C 20 %
394 24-04-2020 17:32:18 26.3 C 20 %
395 24-04-2020 17:42:18 24.2 C 20 %
396 24-04-2020 17:52:17 26 C 20 %
397 24-04-2020 18:02:18 24.1 C 20 %
398 24-04-2020 18:12:18 22.3 C 20 %
399 24-04-2020 18:22:17 22.2 C 20 %
400 24-04-2020 18:32:17 22 C 20 %
Sensor: Nr:Datum:Temp:Feuchte:
Aussen-T/F 401 24-04-2020 18:42:17 20.9 C 20 %
402 24-04-2020 18:52:18 21 C 20 %
403 24-04-2020 19:02:17 20.5 C 20 %
404 24-04-2020 19:12:17 20.3 C 20 %
405 24-04-2020 19:23:17 20 C 20 %
406 24-04-2020 19:32:17 19.9 C 20 %
407 24-04-2020 19:42:18 19.6 C 20 %
408 24-04-2020 19:53:17 19.2 C 20 %
409 24-04-2020 20:02:18 19 C 20 %
410 24-04-2020 20:12:18 18.5 C 20 %
411 24-04-2020 20:22:17 17.7 C 20 %
412 24-04-2020 20:32:18 17.3 C 20 %
413 24-04-2020 20:42:18 16.8 C 20 %
414 24-04-2020 20:52:18 16.1 C 20 %
415 24-04-2020 21:02:18 15.9 C 20 %
416 24-04-2020 21:12:18 15.5 C 20 %
417 24-04-2020 21:23:17 15.4 C 20 %
418 24-04-2020 21:33:17 15 C 20 %
419 24-04-2020 21:42:17 15.1 C 20 %
420 24-04-2020 21:52:17 14.7 C 20 %
421 24-04-2020 22:03:17 14.4 C 20 %
422 24-04-2020 22:13:17 14.1 C 20 %
423 24-04-2020 22:22:18 14.2 C 20 %
424 24-04-2020 22:32:18 14.4 C 20 %
425 24-04-2020 22:42:18 13.9 C 20 %
Sensor: Nr:Datum:Temp:Feuchte:
Aussen-T/F 426 24-04-2020 22:52:18 13.3 C 20 %
427 24-04-2020 23:02:18 13.2 C 20 %
428 24-04-2020 23:12:18 13.2 C 20 %
429 24-04-2020 23:22:17 12.7 C 20 %
430 24-04-2020 23:33:17 12.5 C 20 %
431 24-04-2020 23:43:17 13 C 20 %
432 24-04-2020 23:53:17 12.4 C 20 %
Sensor: Nr:Datum:Temp:Feuchte:
G-T/H 1 22-04-2020 00:02:18 13.6 C 60 %
2 22-04-2020 00:12:18 13.6 C 60 %
3 22-04-2020 00:22:17 13.7 C 60 %
4 22-04-2020 00:32:18 13.6 C 60 %
5 22-04-2020 00:42:18 13.6 C 60 %
6 22-04-2020 00:52:17 13.6 C 60 %
7 22-04-2020 01:02:17 13.6 C 60 %
8 22-04-2020 01:12:17 13.6 C 60 %
9 22-04-2020 01:22:17 13.6 C 60 %
10 22-04-2020 01:32:18 13.6 C 60 %
11 22-04-2020 01:42:18 13.6 C 59 %
12 22-04-2020 01:52:17 13.6 C 59 %
13 22-04-2020 02:02:17 13.6 C 59 %
14 22-04-2020 02:12:17 13.6 C 59 %
15 22-04-2020 02:22:17 13.6 C 59 %
16 22-04-2020 02:32:17 13.5 C 59 %
17 22-04-2020 02:42:17 13.5 C 59 %
18 22-04-2020 02:52:17 13.5 C 59 %
19 22-04-2020 03:02:17 13.6 C 59 %
20 22-04-2020 03:12:17 13.5 C 59 %
21 22-04-2020 03:22:18 13.5 C 59 %
22 22-04-2020 03:32:18 13.5 C 59 %
23 22-04-2020 03:42:18 13.5 C 58 %
24 22-04-2020 03:52:17 13.5 C 58 %
25 22-04-2020 04:02:18 13.5 C 58 %
Sensor: Nr:Datum:Temp:Feuchte:
G-T/H 26 22-04-2020 04:12:18 13.5 C 58 %
27 22-04-2020 04:22:17 13.5 C 58 %
28 22-04-2020 04:32:18 13.4 C 58 %
29 22-04-2020 04:42:18 13.4 C 58 %
30 22-04-2020 04:52:17 13.5 C 58 %
31 22-04-2020 05:02:18 13.4 C 58 %
32 22-04-2020 05:12:18 13.4 C 58 %
33 22-04-2020 05:22:17 13.4 C 58 %
34 22-04-2020 05:32:17 13.4 C 58 %
35 22-04-2020 05:42:18 13.4 C 58 %
36 22-04-2020 05:52:17 13.4 C 58 %
37 22-04-2020 06:02:18 13.3 C 58 %
38 22-04-2020 06:12:18 13.3 C 58 %
39 22-04-2020 06:22:17 13.3 C 58 %
40 22-04-2020 06:32:17 13.3 C 58 %
41 22-04-2020 06:42:17 13.3 C 58 %
42 22-04-2020 06:52:17 13.3 C 58 %
43 22-04-2020 07:02:17 13.3 C 58 %
44 22-04-2020 07:12:17 13.2 C 58 %
45 22-04-2020 07:22:18 13.2 C 58 %
46 22-04-2020 07:32:17 13.2 C 58 %
47 22-04-2020 07:42:17 13.2 C 58 %
48 22-04-2020 07:52:17 13.2 C 58 %
49 22-04-2020 08:02:17 13.2 C 58 %
50 22-04-2020 08:12:17 13.2 C 58 %
Sensor: Nr:Datum:Temp:Feuchte:
G-T/H 51 22-04-2020 08:22:17 13.2 C 58 %
52 22-04-2020 08:32:17 13.1 C 58 %
53 22-04-2020 08:42:17 13.1 C 58 %
54 22-04-2020 08:52:18 13.1 C 58 %
55 22-04-2020 09:02:18 13.1 C 58 %
56 22-04-2020 09:12:18 13.1 C 58 %
57 22-04-2020 09:22:17 13.1 C 58 %
58 22-04-2020 09:32:17 13.1 C 58 %
59 22-04-2020 09:42:17 13.1 C 58 %
60 22-04-2020 09:52:17 13.1 C 58 %
61 22-04-2020 10:02:17 13.1 C 58 %
62 22-04-2020 10:12:17 13 C 58 %
63 22-04-2020 10:22:17 13 C 58 %
64 22-04-2020 10:32:17 13 C 58 %
65 22-04-2020 10:42:17 13 C 59 %
66 22-04-2020 10:52:17 13 C 59 %
67 22-04-2020 11:02:17 13 C 59 %
68 22-04-2020 11:12:17 13 C 59 %
69 22-04-2020 11:22:17 13 C 59 %
70 22-04-2020 11:32:17 13 C 59 %
71 22-04-2020 11:42:17 13 C 60 %
72 22-04-2020 11:52:18 13 C 60 %
73 22-04-2020 12:02:18 13 C 60 %
74 22-04-2020 12:12:18 13 C 60 %
75 22-04-2020 12:22:17 13 C 60 %
Sensor: Nr:Datum:Temp:Feuchte:
G-T/H 76 22-04-2020 12:32:17 13 C 60 %
77 22-04-2020 12:42:17 13.1 C 60 %
78 22-04-2020 12:52:18 13.1 C 60 %
79 22-04-2020 13:02:17 13.1 C 60 %
80 22-04-2020 13:12:17 13.1 C 60 %
81 22-04-2020 13:22:17 13.1 C 60 %
82 22-04-2020 13:32:17 13.1 C 60 %
83 22-04-2020 13:42:17 13.1 C 60 %
84 22-04-2020 13:52:17 13.1 C 60 %
85 22-04-2020 14:02:17 13.2 C 60 %
86 22-04-2020 14:12:17 13.2 C 60 %
87 22-04-2020 14:22:17 13.2 C 60 %
88 22-04-2020 14:32:17 13.2 C 60 %
89 22-04-2020 14:42:17 13.2 C 60 %
90 22-04-2020 14:52:17 13.3 C 60 %
91 22-04-2020 15:02:17 13.3 C 60 %
92 22-04-2020 15:12:18 13.3 C 60 %
93 22-04-2020 15:22:17 13.3 C 60 %
94 22-04-2020 15:32:17 13.3 C 60 %
95 22-04-2020 15:42:17 13.3 C 60 %
96 22-04-2020 15:52:17 13.4 C 61 %
97 22-04-2020 16:02:17 13.4 C 61 %
98 22-04-2020 16:12:17 13.4 C 61 %
99 22-04-2020 16:22:17 13.4 C 61 %
100 22-04-2020 16:32:18 13.5 C 61 %
Sensor: Nr:Datum:Temp:Feuchte:
G-T/H 101 22-04-2020 16:42:18 13.5 C 61 %
102 22-04-2020 16:52:17 13.5 C 61 %
103 22-04-2020 17:02:17 13.5 C 61 %
104 22-04-2020 17:12:17 13.6 C 61 %
105 22-04-2020 17:22:17 13.6 C 61 %
106 22-04-2020 17:32:17 13.6 C 61 %
107 22-04-2020 17:42:17 13.6 C 61 %
108 22-04-2020 17:52:17 13.7 C 61 %
109 22-04-2020 18:02:17 13.7 C 60 %
110 22-04-2020 18:12:17 13.7 C 60 %
111 22-04-2020 18:22:17 13.7 C 59 %
112 22-04-2020 18:32:17 13.8 C 59 %
113 22-04-2020 18:42:17 13.8 C 59 %
114 22-04-2020 18:52:17 13.8 C 60 %
115 22-04-2020 19:02:17 13.8 C 60 %
116 22-04-2020 19:12:17 13.8 C 60 %
117 22-04-2020 19:22:17 13.8 C 60 %
118 22-04-2020 19:32:18 13.8 C 60 %
119 22-04-2020 19:42:18 13.8 C 61 %
120 22-04-2020 19:52:17 13.8 C 61 %
121 22-04-2020 20:02:18 13.8 C 61 %
122 22-04-2020 20:12:18 13.9 C 61 %
123 22-04-2020 20:22:17 13.8 C 61 %
124 22-04-2020 20:32:17 13.9 C 61 %
125 22-04-2020 20:42:17 13.9 C 61 %
Sensor: Nr:Datum:Temp:Feuchte:
G-T/H 126 22-04-2020 20:52:17 13.9 C 61 %
127 22-04-2020 21:02:17 13.8 C 60 %
128 22-04-2020 21:12:17 13.8 C 60 %
129 22-04-2020 21:22:17 13.9 C 60 %
130 22-04-2020 21:32:17 13.9 C 60 %
131 22-04-2020 21:42:17 13.8 C 60 %
132 22-04-2020 21:52:17 13.8 C 60 %
133 22-04-2020 22:02:17 13.8 C 60 %
134 22-04-2020 22:12:17 13.8 C 60 %
135 22-04-2020 22:22:17 13.8 C 60 %
136 22-04-2020 22:32:17 13.8 C 60 %
137 22-04-2020 22:42:17 13.9 C 60 %
138 22-04-2020 22:52:18 13.9 C 60 %
139 22-04-2020 23:02:17 13.8 C 60 %
140 22-04-2020 23:12:17 13.8 C 60 %
141 22-04-2020 23:22:17 13.8 C 60 %
142 22-04-2020 23:32:17 13.8 C 60 %
143 22-04-2020 23:42:17 13.8 C 60 %
144 22-04-2020 23:52:18 13.9 C 60 %
145 23-04-2020 00:02:17 13.8 C 60 %
146 23-04-2020 00:12:17 13.9 C 60 %
147 23-04-2020 00:22:17 13.8 C 60 %
148 23-04-2020 00:32:17 13.9 C 60 %
149 23-04-2020 00:42:17 13.9 C 60 %
150 23-04-2020 00:52:17 13.8 C 60 %
Sensor: Nr:Datum:Temp:Feuchte:
G-T/H 151 23-04-2020 01:02:17 13.9 C 60 %
152 23-04-2020 01:12:17 13.8 C 60 %
153 23-04-2020 01:22:18 13.8 C 60 %
154 23-04-2020 01:32:17 13.8 C 60 %
155 23-04-2020 01:42:17 13.8 C 60 %
156 23-04-2020 01:52:17 13.8 C 60 %
157 23-04-2020 02:02:17 13.8 C 60 %
158 23-04-2020 02:12:17 13.8 C 60 %
159 23-04-2020 02:22:18 13.8 C 60 %
160 23-04-2020 02:32:17 13.8 C 60 %
161 23-04-2020 02:42:17 13.8 C 60 %
162 23-04-2020 02:52:17 13.8 C 60 %
163 23-04-2020 03:02:18 13.8 C 60 %
164 23-04-2020 03:12:18 13.8 C 59 %
165 23-04-2020 03:22:17 13.8 C 59 %
166 23-04-2020 03:32:17 13.8 C 59 %
167 23-04-2020 03:42:17 13.8 C 59 %
168 23-04-2020 03:52:17 13.8 C 59 %
169 23-04-2020 04:02:17 13.8 C 59 %
170 23-04-2020 04:12:17 13.7 C 59 %
171 23-04-2020 04:22:17 13.7 C 59 %
172 23-04-2020 04:32:17 13.7 C 59 %
173 23-04-2020 04:42:17 13.7 C 58 %
174 23-04-2020 04:52:17 13.7 C 58 %
175 23-04-2020 05:02:17 13.7 C 58 %
Sensor: Nr:Datum:Temp:Feuchte:
G-T/H 176 23-04-2020 05:12:17 13.7 C 58 %
177 23-04-2020 05:22:17 13.7 C 58 %
178 23-04-2020 05:32:17 13.7 C 58 %
179 23-04-2020 05:42:17 13.6 C 58 %
180 23-04-2020 05:52:17 13.6 C 58 %
181 23-04-2020 06:02:17 13.6 C 58 %
182 23-04-2020 06:12:18 13.6 C 58 %
183 23-04-2020 06:22:17 13.6 C 58 %
184 23-04-2020 06:32:18 13.6 C 58 %
185 23-04-2020 06:42:18 13.5 C 58 %
186 23-04-2020 06:52:17 13.5 C 58 %
187 23-04-2020 07:02:17 13.5 C 58 %
188 23-04-2020 07:12:17 13.5 C 58 %
189 23-04-2020 07:22:17 13.5 C 58 %
190 23-04-2020 07:32:17 13.5 C 58 %
191 23-04-2020 07:42:17 13.5 C 58 %
192 23-04-2020 07:52:17 13.5 C 58 %
193 23-04-2020 08:02:17 13.4 C 58 %
194 23-04-2020 08:12:18 13.4 C 58 %
195 23-04-2020 08:22:18 13.4 C 58 %
196 23-04-2020 08:32:18 13.4 C 58 %
197 23-04-2020 08:42:18 13.4 C 58 %
198 23-04-2020 08:52:17 13.3 C 58 %
199 23-04-2020 09:02:17 13.3 C 58 %
200 23-04-2020 09:12:17 13.4 C 58 %
Sensor: Nr:Datum:Temp:Feuchte:
G-T/H 201 23-04-2020 09:22:17 13.3 C 58 %
202 23-04-2020 09:32:17 13.3 C 58 %
203 23-04-2020 09:42:17 13.3 C 58 %
204 23-04-2020 09:52:17 13.3 C 59 %
205 23-04-2020 10:02:18 13.3 C 59 %
206 23-04-2020 10:12:18 13.3 C 59 %
207 23-04-2020 10:22:17 13.3 C 59 %
208 23-04-2020 10:32:17 13.3 C 59 %
209 23-04-2020 10:42:17 13.2 C 59 %
210 23-04-2020 10:52:17 13.2 C 59 %
211 23-04-2020 11:02:18 13.2 C 59 %
212 23-04-2020 11:12:18 13.2 C 59 %
213 23-04-2020 11:22:17 13.2 C 60 %
214 23-04-2020 11:32:17 13.2 C 60 %
215 23-04-2020 11:42:17 13.2 C 60 %
216 23-04-2020 11:52:18 13.3 C 60 %
217 23-04-2020 12:02:17 13.3 C 61 %
218 23-04-2020 12:12:17 13.3 C 61 %
219 23-04-2020 12:22:17 13.3 C 61 %
220 23-04-2020 12:32:18 13.3 C 61 %
221 23-04-2020 12:42:18 13.3 C 61 %
222 23-04-2020 12:52:17 13.3 C 61 %
223 23-04-2020 13:02:17 13.3 C 61 %
224 23-04-2020 13:12:17 13.4 C 61 %
225 23-04-2020 13:22:17 13.3 C 61 %
Sensor: Nr:Datum:Temp:Feuchte:
G-T/H 226 23-04-2020 13:32:17 13.4 C 61 %
227 23-04-2020 13:42:17 13.4 C 61 %
228 23-04-2020 13:52:17 13.4 C 61 %
229 23-04-2020 14:02:17 13.4 C 61 %
230 23-04-2020 14:12:17 13.5 C 61 %
231 23-04-2020 14:22:17 13.4 C 61 %
232 23-04-2020 14:32:17 13.4 C 61 %
233 23-04-2020 14:42:17 13.5 C 61 %
234 23-04-2020 14:52:17 13.5 C 60 %
235 23-04-2020 15:02:17 13.5 C 60 %
236 23-04-2020 15:12:17 13.5 C 60 %
237 23-04-2020 15:22:18 13.5 C 60 %
238 23-04-2020 15:32:17 13.5 C 60 %
239 23-04-2020 15:42:17 13.6 C 61 %
240 23-04-2020 15:52:17 13.6 C 61 %
241 23-04-2020 16:02:18 13.6 C 61 %
242 23-04-2020 16:12:18 13.7 C 61 %
243 23-04-2020 16:22:17 13.7 C 61 %
244 23-04-2020 16:32:18 13.7 C 61 %
245 23-04-2020 16:42:18 13.7 C 61 %
246 23-04-2020 16:52:17 13.7 C 61 %
247 23-04-2020 17:02:17 13.8 C 61 %
248 23-04-2020 17:12:18 13.7 C 61 %
249 23-04-2020 17:22:17 13.8 C 61 %
250 23-04-2020 17:32:18 13.8 C 61 %
Sensor: Nr:Datum:Temp:Feuchte:
G-T/H 251 23-04-2020 17:42:18 13.8 C 61 %
252 23-04-2020 17:52:18 13.9 C 61 %
253 23-04-2020 18:02:17 13.9 C 61 %
254 23-04-2020 18:12:17 13.9 C 61 %
255 23-04-2020 18:22:17 14 C 60 %
256 23-04-2020 18:32:17 14 C 60 %
257 23-04-2020 18:42:17 14 C 60 %
258 23-04-2020 18:52:17 14 C 60 %
259 23-04-2020 19:02:17 14 C 60 %
260 23-04-2020 19:12:17 14.1 C 60 %
261 23-04-2020 19:22:17 14.1 C 60 %
262 23-04-2020 19:32:18 14 C 60 %
263 23-04-2020 19:42:18 14.1 C 60 %
264 23-04-2020 19:52:17 14.1 C 60 %
265 23-04-2020 20:02:18 14.1 C 60 %
266 23-04-2020 20:12:18 14.1 C 60 %
267 23-04-2020 20:22:17 14.1 C 60 %
268 23-04-2020 20:32:18 14.1 C 60 %
269 23-04-2020 20:42:18 14 C 60 %
270 23-04-2020 20:52:18 14.1 C 60 %
271 23-04-2020 21:02:18 14.1 C 60 %
272 23-04-2020 21:12:18 14.1 C 60 %
273 23-04-2020 21:22:17 14.1 C 60 %
274 23-04-2020 21:32:17 14.1 C 60 %
275 23-04-2020 21:42:17 14.1 C 60 %
Sensor: Nr:Datum:Temp:Feuchte:
G-T/H 276 23-04-2020 21:52:17 14.1 C 61 %
277 23-04-2020 22:02:17 14 C 61 %
278 23-04-2020 22:12:17 14.1 C 60 %
279 23-04-2020 22:22:17 14 C 59 %
280 23-04-2020 22:32:18 14 C 59 %
281 23-04-2020 22:42:18 14 C 59 %
282 23-04-2020 22:52:18 14.1 C 59 %
283 23-04-2020 23:02:18 14.1 C 59 %
284 23-04-2020 23:12:18 14.1 C 59 %
285 23-04-2020 23:22:18 14 C 59 %
286 23-04-2020 23:32:17 14.1 C 59 %
287 23-04-2020 23:42:17 14.1 C 59 %
288 23-04-2020 23:52:17 14 C 59 %
289 24-04-2020 00:02:18 14.1 C 59 %
290 24-04-2020 00:12:18 14 C 59 %
291 24-04-2020 00:22:17 14 C 59 %
292 24-04-2020 00:32:18 14 C 59 %
293 24-04-2020 00:42:18 14 C 59 %
294 24-04-2020 00:52:17 14 C 59 %
295 24-04-2020 01:02:18 14 C 59 %
296 24-04-2020 01:12:18 14 C 59 %
297 24-04-2020 01:22:17 14 C 59 %
298 24-04-2020 01:32:18 14 C 59 %
299 24-04-2020 01:42:18 14 C 59 %
300 24-04-2020 01:52:17 14 C 58 %
Sensor: Nr:Datum:Temp:Feuchte:
G-T/H 301 24-04-2020 02:02:17 14 C 58 %
302 24-04-2020 02:12:17 14 C 58 %
303 24-04-2020 02:22:17 13.9 C 59 %
304 24-04-2020 02:32:18 13.9 C 59 %
305 24-04-2020 02:42:18 13.9 C 59 %
306 24-04-2020 02:52:18 13.9 C 59 %
307 24-04-2020 03:02:17 13.9 C 59 %
308 24-04-2020 03:12:18 13.9 C 59 %
309 24-04-2020 03:22:17 13.9 C 59 %
310 24-04-2020 03:32:17 13.9 C 59 %
311 24-04-2020 03:42:17 13.9 C 59 %
312 24-04-2020 03:52:17 13.8 C 59 %
313 24-04-2020 04:02:17 13.8 C 59 %
314 24-04-2020 04:12:17 13.8 C 59 %
315 24-04-2020 04:22:17 13.8 C 59 %
316 24-04-2020 04:32:17 13.8 C 59 %
317 24-04-2020 04:42:17 13.8 C 59 %
318 24-04-2020 04:52:17 13.8 C 58 %
319 24-04-2020 05:02:17 13.8 C 58 %
320 24-04-2020 05:12:17 13.8 C 58 %
321 24-04-2020 05:22:17 13.7 C 58 %
322 24-04-2020 05:32:18 13.7 C 58 %
323 24-04-2020 05:42:18 13.7 C 58 %
324 24-04-2020 05:52:17 13.7 C 58 %
325 24-04-2020 06:02:17 13.7 C 58 %
Sensor: Nr:Datum:Temp:Feuchte:
G-T/H 326 24-04-2020 06:12:17 13.7 C 58 %
327 24-04-2020 06:22:18 13.7 C 58 %
328 24-04-2020 06:32:17 13.6 C 58 %
329 24-04-2020 06:42:17 13.6 C 58 %
330 24-04-2020 06:52:17 13.6 C 58 %
331 24-04-2020 07:02:17 13.6 C 58 %
332 24-04-2020 07:12:17 13.5 C 59 %
333 24-04-2020 07:22:17 13.6 C 59 %
334 24-04-2020 07:32:18 13.6 C 59 %
335 24-04-2020 07:42:18 13.5 C 59 %
336 24-04-2020 07:52:17 13.5 C 59 %
337 24-04-2020 08:02:18 13.5 C 59 %
338 24-04-2020 08:12:18 13.5 C 59 %
339 24-04-2020 08:22:17 13.5 C 59 %
340 24-04-2020 08:32:17 13.5 C 59 %
341 24-04-2020 08:42:17 13.5 C 59 %
342 24-04-2020 08:52:17 13.5 C 59 %
343 24-04-2020 09:02:17 13.5 C 59 %
344 24-04-2020 09:12:18 13.4 C 59 %
345 24-04-2020 09:22:17 13.4 C 59 %
346 24-04-2020 09:32:18 13.4 C 59 %
347 24-04-2020 09:42:18 13.4 C 59 %
348 24-04-2020 09:52:17 13.4 C 59 %
349 24-04-2020 10:02:17 13.4 C 60 %
350 24-04-2020 10:12:17 13.4 C 60 %
Sensor: Nr:Datum:Temp:Feuchte:
G-T/H 351 24-04-2020 10:22:17 13.4 C 60 %
352 24-04-2020 10:32:17 13.4 C 60 %
353 24-04-2020 10:42:17 13.4 C 61 %
354 24-04-2020 10:52:17 13.4 C 61 %
355 24-04-2020 11:02:17 13.4 C 61 %
356 24-04-2020 11:12:18 13.4 C 61 %
357 24-04-2020 11:22:17 13.4 C 62 %
358 24-04-2020 11:32:18 13.4 C 62 %
359 24-04-2020 11:42:18 13.5 C 62 %
360 24-04-2020 11:52:17 13.7 C 60 %
361 24-04-2020 12:02:17 14 C 59 %
362 24-04-2020 12:12:17 14.1 C 58 %
363 24-04-2020 12:22:17 14.4 C 57 %
364 24-04-2020 12:32:18 14.5 C 57 %
365 24-04-2020 12:42:18 14.6 C 56 %
366 24-04-2020 12:52:18 14.8 C 55 %
367 24-04-2020 13:02:17 14.9 C 53 %
368 24-04-2020 13:12:17 15.1 C 51 %
369 24-04-2020 13:22:17 15.2 C 50 %
370 24-04-2020 13:32:18 15.4 C 48 %
371 24-04-2020 13:42:18 15.5 C 46 %
372 24-04-2020 13:52:17 15.5 C 46 %
373 24-04-2020 14:02:17 15.6 C 46 %
374 24-04-2020 14:12:17 15.9 C 45 %
375 24-04-2020 14:22:17 16 C 45 %
Sensor: Nr:Datum:Temp:Feuchte:
G-T/H 376 24-04-2020 14:32:17 16.1 C 45 %
377 24-04-2020 14:42:17 16.2 C 46 %
378 24-04-2020 14:52:17 16.2 C 46 %
379 24-04-2020 15:02:18 16.3 C 46 %
380 24-04-2020 15:12:18 16.4 C 46 %
381 24-04-2020 15:22:17 16.6 C 45 %
382 24-04-2020 15:32:17 16.6 C 44 %
383 24-04-2020 15:42:18 16.6 C 43 %
384 24-04-2020 15:52:17 16.6 C 43 %
385 24-04-2020 16:02:18 16.7 C 42 %
386 24-04-2020 16:12:18 16.8 C 41 %
387 24-04-2020 16:22:18 16.8 C 40 %
388 24-04-2020 16:32:18 16.9 C 40 %
389 24-04-2020 16:42:18 16.9 C 39 %
390 24-04-2020 16:52:17 16.9 C 38 %
391 24-04-2020 17:02:17 17 C 37 %
392 24-04-2020 17:12:17 17.1 C 37 %
393 24-04-2020 17:22:18 17.1 C 36 %
394 24-04-2020 17:32:18 17.2 C 36 %
395 24-04-2020 17:42:18 17.1 C 35 %
396 24-04-2020 17:52:17 17.2 C 35 %
397 24-04-2020 18:02:18 17.2 C 35 %
398 24-04-2020 18:12:18 17.2 C 36 %
399 24-04-2020 18:22:17 17.2 C 36 %
400 24-04-2020 18:32:17 17.2 C 37 %
Sensor: Nr:Datum:Temp:Feuchte:
G-T/H 401 24-04-2020 18:42:17 17.2 C 38 %
402 24-04-2020 18:52:18 17.2 C 39 %
403 24-04-2020 19:02:17 17.2 C 39 %
404 24-04-2020 19:12:17 17.2 C 40 %
405 24-04-2020 19:23:17 17 C 40 %
406 24-04-2020 19:32:17 16.8 C 41 %
407 24-04-2020 19:42:18 16.7 C 42 %
408 24-04-2020 19:53:17 16.6 C 42 %
409 24-04-2020 20:02:18 16.6 C 43 %
410 24-04-2020 20:12:18 16.4 C 44 %
411 24-04-2020 20:22:17 16.5 C 44 %
412 24-04-2020 20:32:18 16.4 C 45 %
413 24-04-2020 20:42:18 16.3 C 45 %
414 24-04-2020 20:52:18 16.3 C 46 %
415 24-04-2020 21:02:18 16.3 C 46 %
416 24-04-2020 21:12:18 16.2 C 47 %
417 24-04-2020 21:23:17 16.2 C 47 %
418 24-04-2020 21:33:17 16.1 C 47 %
419 24-04-2020 21:42:17 16.1 C 48 %
420 24-04-2020 21:52:17 16 C 48 %
421 24-04-2020 22:03:17 16 C 49 %
422 24-04-2020 22:13:17 16 C 49 %
423 24-04-2020 22:22:18 15.9 C 50 %
424 24-04-2020 22:32:18 15.9 C 51 %
425 24-04-2020 22:42:18 15.9 C 51 %
Sensor: Nr:Datum:Temp:Feuchte:
G-T/H 426 24-04-2020 22:52:18 15.8 C 51 %
427 24-04-2020 23:02:18 15.8 C 52 %
428 24-04-2020 23:12:18 15.8 C 52 %
429 24-04-2020 23:22:17 15.8 C 52 %
430 24-04-2020 23:33:17 15.7 C 52 %
431 24-04-2020 23:43:17 15.7 C 53 %
432 24-04-2020 23:53:17 15.7 C 53 %

Legende:
   Min
   Max


Maximal/Minimal-Werte vom 22.04.2020 - 24.04.2020

Sensor Min Max Avg
Temp
(Aussen-T/F)
5.2 °C
23-04-2020  07:22:17
31.6 °C
23-04-2020  17:02:17
14.77 °C
Feuchte
(Aussen-T/F)
20 %
22-04-2020  00:02:18
39 %
23-04-2020  07:32:17
25.18 %
Temp
(G-T/H)
13 °C
22-04-2020  10:12:17
17.2 °C
24-04-2020  17:32:18
14.02 °C
Feuchte
(G-T/H)
35 %
24-04-2020  17:42:18
62 %
24-04-2020  11:22:17
57.07 %

Die Daten stammen von einer Davis Vantage Pro 2 Wetter-Station und werden unter Linux mit der Software wview2wettercgi und aufbereitet. Alle Angaben erfolgen ohne Gewähr für ihre Vollständigkeit oder Richtigkeit.
Kontakt: Rainer Krienke krienke@uni-koblenz.de . Meine Webseiten an der Uni Koblenz oder privat.
Version: $Revision: 0.78 $